| time (UTC) | temp F | wind direction | speed knots | gust knots | rain 1hr in | rain 24hr in | rain mn in | humidity % | barometer mb |
| 20260504214905 | 62 | 289 | 4.3 | 14.8 | 0.00 | 0.00 | 0.00 | 67 | 1011.9 |
| 20260504213404 | 62 | 280 | 2.6 | 12.2 | 0.00 | 0.00 | 0.00 | 69 | 1011.9 |
| 20260504212904 | 62 | 268 | 3.5 | 12.2 | 0.00 | 0.00 | 0.00 | 68 | 1011.9 |
| 20260504212404 | 62 | 281 | 4.3 | 11.3 | 0.00 | 0.00 | 0.00 | 69 | 1011.9 |
| 20260504211904 | 62 | 265 | 5.2 | 11.3 | 0.00 | 0.00 | 0.00 | 68 | 1011.9 |
| 20260504211404 | 62 | 239 | 2.6 | 10.4 | 0.00 | 0.00 | 0.00 | 67 | 1011.9 |
| 20260504210904 | 62 | 260 | 2.6 | 13.0 | 0.00 | 0.00 | 0.00 | 67 | 1011.9 |
| 20260504210404 | 63 | 265 | 4.3 | 13.9 | 0.00 | 0.00 | 0.00 | 67 | 1011.9 |
| 20260504205906 | 63 | 278 | 6.1 | 13.9 | 0.00 | 0.00 | 0.00 | 66 | 1011.9 |
| 20260504205405 | 63 | 255 | 3.5 | 12.2 | 0.00 | 0.00 | 0.00 | 66 | 1011.9 |
| 20260504204906 | 63 | 278 | 5.2 | 12.2 | 0.00 | 0.00 | 0.00 | 66 | 1011.9 |
| 20260504204406 | 63 | 286 | 4.3 | 13.9 | 0.00 | 0.00 | 0.00 | 64 | 1011.9 |
| 20260504203905 | 64 | 277 | 4.3 | 13.9 | 0.00 | 0.00 | 0.00 | 63 | 1011.9 |
| 20260504203406 | 64 | 266 | 4.3 | 7.0 | 0.00 | 0.00 | 0.00 | 63 | 1011.9 |
| 20260504202405 | 64 | 280 | 3.5 | 13.0 | 0.00 | 0.00 | 0.00 | 63 | 1011.9 |
| 20260504201905 | 64 | 293 | 3.5 | 10.4 | 0.00 | 0.00 | 0.00 | 62 | 1011.9 |
| 20260504201405 | 64 | 267 | 3.5 | 8.7 | 0.00 | 0.00 | 0.00 | 61 | 1011.9 |
| 20260504200904 | 65 | 233 | 5.2 | 8.7 | 0.00 | 0.00 | 0.00 | 60 | 1011.9 |
| 20260504200405 | 65 | 259 | 3.5 | 13.0 | 0.00 | 0.00 | 0.00 | 61 | 1011.9 |
| 20260504195905 | 65 | 247 | 1.7 | 13.0 | 0.00 | 0.00 | 0.00 | 61 | 1011.9 |
| 20260504195405 | 65 | 288 | 4.3 | 13.0 | 0.00 | 0.00 | 0.00 | 58 | 1011.9 |
| 20260504194904 | 66 | 274 | 4.3 | 12.2 | 0.00 | 0.00 | 0.00 | 55 | 1011.9 |
| 20260504194404 | 67 | 291 | 4.3 | 11.3 | 0.00 | 0.00 | 0.00 | 55 | 1011.9 |
| 20260504193907 | 67 | 285 | 3.5 | 13.0 | 0.00 | 0.00 | 0.00 | 54 | 1011.9 |
| 20260504193404 | 67 | 277 | 1.7 | 13.0 | 0.00 | 0.00 | 0.00 | 55 | 1011.9 |
| 20260504192405 | 69 | 293 | 7.0 | 13.0 | 0.00 | 0.00 | 0.00 | 49 | 1011.9 |
| 20260504191904 | 72 | 279 | 6.1 | 12.2 | 0.00 | 0.00 | 0.00 | 48 | 1011.6 |
| 20260504191404 | 74 | 282 | 5.2 | 11.3 | 0.00 | 0.00 | 0.00 | 48 | 1011.6 |
| 20260504190906 | 76 | 293 | 4.3 | 11.3 | 0.00 | 0.00 | 0.00 | 47 | 1011.6 |
| 20260504190404 | 76 | 290 | 4.3 | 7.0 | 0.00 | 0.00 | 0.00 | 47 | 1011.6 |
| 20260504185904 | 76 | 303 | 2.6 | 5.2 | 0.00 | 0.00 | 0.00 | 47 | 1011.8 |
| 20260504184906 | 75 | 304 | 2.6 | 4.3 | 0.00 | 0.00 | 0.00 | 48 | 1011.8 |
| 20260504183906 | 75 | 297 | 0.9 | 1.7 | 0.00 | 0.00 | 0.00 | 45 | 1011.8 |
| 20260504183404 | 74 | 297 | 1.7 | 1.7 | 0.00 | 0.00 | 0.00 | 48 | 1011.8 |
| 20260504182905 | 74 | 297 | 0.9 | 1.7 | 0.00 | 0.00 | 0.00 | 46 | 1011.9 |
| 20260504182405 | 74 | 297 | 0.9 | 1.7 | 0.00 | 0.00 | 0.00 | 44 | 1011.9 |
| 20260504181904 | 74 | 297 | 0.9 | 1.7 | 0.00 | 0.00 | 0.00 | 46 | 1011.9 |
| 20260504180905 | 74 | 297 | 0.9 | 1.7 | 0.00 | 0.00 | 0.00 | 45 | 1012.0 |
| 20260504180404 | 74 | 297 | 0.9 | 2.6 | 0.00 | 0.00 | 0.00 | 46 | 1012.0 |
| 20260504175405 | 73 | 297 | 1.7 | 2.6 | 0.00 | 0.00 | 0.00 | 47 | 1011.9 |
| 20260504174904 | 73 | 297 | 1.7 | 2.6 | 0.00 | 0.00 | 0.00 | 45 | 1011.9 |
| 20260504174405 | 74 | 297 | 0.9 | 2.6 | 0.00 | 0.00 | 0.00 | 45 | 1011.9 |
| 20260504173904 | 74 | 297 | 0.9 | 2.6 | 0.00 | 0.00 | 0.00 | 44 | 1011.9 |
| 20260504173404 | 74 | 297 | 1.7 | 2.6 | 0.00 | 0.00 | 0.00 | 47 | 1011.9 |
| 20260504172905 | 74 | 299 | 0.9 | 2.6 | 0.00 | 0.00 | 0.00 | 47 | 1012.0 |
| 20260504172405 | 74 | 307 | 1.7 | 2.6 | 0.00 | 0.00 | 0.00 | 44 | 1012.0 |
| 20260504171405 | 73 | 307 | 0.9 | 2.6 | 0.00 | 0.00 | 0.00 | 46 | 1012.0 |
| 20260504170406 | 72 | 307 | 1.7 | 2.6 | 0.00 | 0.00 | 0.00 | 48 | 1012.0 |
| 20260504160408 | 70 | 340 | 1.7 | 5.2 | 0.00 | 0.00 | 0.00 | 50 | 1011.1 |
| 20260504150905 | 65 | 280 | 0.9 | 4.3 | 0.00 | 0.00 | 0.00 | 50 | 1011.0 |
| 20260504150406 | 64 | 280 | 0.9 | 4.3 | 0.00 | 0.00 | 0.00 | 57 | 1010.8 |
| 20260504140905 | 56 | 195 | 5.2 | 5.2 | 0.00 | 0.00 | 0.00 | 64 | 1010.5 |
| 20260504140404 | 56 | 198 | 5.2 | 5.2 | 0.00 | 0.00 | 0.00 | 63 | 1010.5 |
| 20260504130405 | 53 | 183 | 7.0 | 7.8 | 0.00 | 0.00 | 0.00 | 66 | 1010.1 |
| 20260504110404 | 53 | 168 | 4.3 | 5.2 | 0.00 | 0.00 | 0.00 | 67 | 1010.0 |
| 20260504100404 | 53 | 187 | 2.6 | 4.3 | 0.00 | 0.00 | 0.00 | 67 | 1010.0 |
| 20260504081405 | 55 | 312 | 0.0 | 0.9 | 0.00 | 0.00 | 0.00 | 62 | 1009.6 |
| 20260504080904 | 55 | 297 | 0.0 | 2.6 | 0.00 | 0.00 | 0.00 | 62 | 1009.6 |
| 20260504080405 | 56 | 297 | 0.9 | 4.3 | 0.00 | 0.00 | 0.00 | 63 | 1009.6 |
| 20260504070404 | 57 | 203 | 5.2 | 4.3 | 0.00 | 0.00 | 0.00 | 60 | 1010.0 |
| 20260504050406 | 61 | 208 | 2.6 | 5.2 | 0.00 | 0.00 | 0.00 | 52 | 1010.5 |
| 20260504045905 | 61 | 210 | 4.3 | 5.2 | 0.00 | 0.00 | 0.00 | 52 | 1010.5 |
| 20260504045404 | 62 | 254 | 1.7 | 4.3 | 0.00 | 0.00 | 0.00 | 49 | 1010.5 |
| 20260504045243 | 62 | 254 | 1.7 | 4.3 | 0.00 | 0.00 | 0.00 | 48 | 1010.5 |
| 20260504043904 | 63 | 185 | 3.5 | 5.2 | 0.00 | 0.00 | 0.00 | 45 | 1010.3 |
| 20260504043407 | 63 | 179 | 2.6 | 5.2 | 0.00 | 0.00 | 0.00 | 45 | 1010.3 |
| 20260504042904 | 63 | 179 | 5.2 | 5.2 | 0.00 | 0.00 | 0.00 | 45 | 1010.3 |
| 20260504042404 | 63 | 195 | 2.6 | 4.3 | 0.00 | 0.00 | 0.00 | 46 | 1010.3 |
| 20260504041906 | 63 | 195 | 4.3 | 4.3 | 0.00 | 0.00 | 0.00 | 46 | 1010.3 |
| 20260504041406 | 64 | 234 | 1.7 | 4.3 | 0.00 | 0.00 | 0.00 | 44 | 1010.0 |
| 20260504040906 | 64 | 234 | 0.0 | 2.6 | 0.00 | 0.00 | 0.00 | 43 | 1010.0 |
| 20260504040407 | 64 | 234 | 1.7 | 2.6 | 0.00 | 0.00 | 0.00 | 43 | 1010.0 |
| 20260504035906 | 65 | 234 | 2.6 | 4.3 | 0.00 | 0.00 | 0.00 | 42 | 1010.0 |
| 20260504035404 | 65 | 234 | 2.6 | 4.3 | 0.00 | 0.00 | 0.00 | 41 | 1010.0 |
| 20260504034906 | 66 | 234 | 3.5 | 4.3 | 0.00 | 0.00 | 0.00 | 41 | 1010.0 |
| 20260504033905 | 67 | 234 | 3.5 | 4.3 | 0.00 | 0.00 | 0.00 | 40 | 1010.0 |
| 20260504033406 | 67 | 234 | 2.6 | 2.6 | 0.00 | 0.00 | 0.00 | 39 | 1010.0 |
| 20260504032904 | 68 | 234 | 1.7 | 2.6 | 0.00 | 0.00 | 0.00 | 38 | 1010.0 |
| 20260504032405 | 69 | 234 | 0.0 | 0.0 | 0.00 | 0.00 | 0.00 | 38 | 1010.0 |
| 20260504031906 | 70 | 234 | 0.0 | 0.0 | 0.00 | 0.00 | 0.00 | 37 | 1010.0 |
| 20260504031406 | 71 | 234 | 0.0 | 0.0 | 0.00 | 0.00 | 0.00 | 35 | 1010.0 |
| 20260504030904 | 72 | 234 | 0.0 | 0.0 | 0.00 | 0.00 | 0.00 | 35 | 1010.0 |
| 20260504030406 | 73 | 234 | 0.0 | 0.0 | 0.00 | 0.00 | 0.00 | 33 | 1010.1 |
| 20260504025905 | 74 | 234 | 0.0 | 0.0 | 0.00 | 0.00 | 0.00 | 32 | 1010.1 |
| 20260504025405 | 74 | 234 | 0.0 | 0.9 | 0.00 | 0.00 | 0.00 | 30 | 1010.1 |
| 20260504024405 | 74 | 234 | 0.9 | 5.2 | 0.00 | 0.00 | 0.00 | 29 | 1010.1 |
| 20260504023905 | 75 | 234 | 1.7 | 5.2 | 0.00 | 0.00 | 0.00 | 29 | 1010.3 |
| 20260504023404 | 74 | 234 | 2.6 | 5.2 | 0.00 | 0.00 | 0.00 | 27 | 1010.3 |
| 20260504022904 | 75 | 223 | 1.7 | 4.3 | 0.00 | 0.00 | 0.00 | 30 | 1010.3 |
| 20260504022405 | 75 | 222 | 1.7 | 5.2 | 0.00 | 0.00 | 0.00 | 29 | 1010.5 |
| 20260504020904 | 75 | 228 | 4.3 | 7.0 | 0.00 | 0.00 | 0.00 | 28 | 1010.6 |
| 20260504020405 | 76 | 240 | 0.9 | 7.0 | 0.00 | 0.00 | 0.00 | 28 | 1010.6 |
| 20260504015904 | 76 | 232 | 4.3 | 7.0 | 0.00 | 0.00 | 0.00 | 28 | 1010.6 |
| 20260504014904 | 76 | 266 | 1.7 | 4.3 | 0.00 | 0.00 | 0.00 | 30 | 1011.1 |
| 20260504014404 | 77 | 295 | 2.6 | 4.3 | 0.00 | 0.00 | 0.00 | 29 | 1011.1 |
| 20260504013906 | 77 | 293 | 1.7 | 5.2 | 0.00 | 0.00 | 0.00 | 30 | 1011.1 |
| 20260504013404 | 77 | 293 | 2.6 | 5.2 | 0.00 | 0.00 | 0.00 | 29 | 1011.1 |
| 20260504012404 | 78 | 306 | 1.7 | 2.6 | 0.00 | 0.00 | 0.00 | 31 | 1011.1 |
| 20260504011406 | 79 | 306 | 1.7 | 2.6 | 0.00 | 0.00 | 0.00 | 30 | 1011.1 |
| 20260504010905 | 79 | 306 | 0.0 | 1.7 | 0.00 | 0.00 | 0.00 | 32 | 1011.1 |
| 20260504010405 | 79 | 306 | 0.9 | 1.7 | 0.00 | 0.00 | 0.00 | 31 | 1011.1 |
| 20260504005904 | 79 | 306 | 0.9 | 1.7 | 0.00 | 0.00 | 0.00 | 31 | 1011.7 |
| 20260504005404 | 80 | 305 | 0.9 | 1.7 | 0.00 | 0.00 | 0.00 | 28 | 1011.7 |
| 20260504004404 | 80 | 306 | 0.9 | 2.6 | 0.00 | 0.00 | 0.00 | 31 | 1011.7 |
| 20260504003404 | 80 | 302 | 1.7 | 4.3 | 0.00 | 0.00 | 0.00 | 32 | 1011.7 |
| 20260504002904 | 80 | 300 | 1.7 | 4.3 | 0.00 | 0.00 | 0.00 | 32 | 1011.7 |
| 20260504001905 | 81 | 295 | 1.7 | 5.2 | 0.00 | 0.00 | 0.00 | 36 | 1011.7 |
| 20260504001404 | 82 | 279 | 2.6 | 5.2 | 0.00 | 0.00 | 0.00 | 28 | 1011.7 |
| 20260503235906 | 82 | 293 | 1.7 | 4.3 | 0.00 | 0.00 | 0.00 | 31 | 1011.7 |
| 20260503235404 | 82 | 301 | 1.7 | 4.3 | 0.00 | 0.00 | 0.00 | 33 | 1011.7 |
| 20260503234906 | 82 | 305 | 2.6 | 4.3 | 0.00 | 0.00 | 0.00 | 32 | 1011.8 |
| 20260503234404 | 82 | 301 | 1.7 | 5.2 | 0.00 | 0.00 | 0.00 | 31 | 1011.8 |
| 20260503233904 | 83 | 290 | 2.6 | 5.2 | 0.00 | 0.00 | 0.00 | 31 | 1011.9 |
| 20260503233404 | 83 | 299 | 2.6 | 5.2 | 0.00 | 0.00 | 0.00 | 34 | 1012.6 |
| 20260503232906 | 83 | 291 | 2.6 | 5.2 | 0.00 | 0.00 | 0.00 | 32 | 1012.6 |
| 20260503232405 | 83 | 301 | 3.5 | 5.2 | 0.00 | 0.00 | 0.00 | 32 | 1012.6 |
| 20260503231906 | 83 | 294 | 2.6 | 5.2 | 0.00 | 0.00 | 0.00 | 31 | 1012.6 |
| 20260503231405 | 82 | 299 | 2.6 | 5.2 | 0.00 | 0.00 | 0.00 | 32 | 1012.6 |
| 20260503230906 | 82 | 300 | 2.6 | 6.1 | 0.00 | 0.00 | 0.00 | 32 | 1012.6 |
| 20260503230405 | 82 | 302 | 2.6 | 6.1 | 0.00 | 0.00 | 0.00 | 33 | 1012.6 |
| 20260503225404 | 80 | 299 | 2.6 | 5.2 | 0.00 | 0.00 | 0.00 | 36 | 1012.6 |
| 20260503224904 | 80 | 301 | 2.6 | 5.2 | 0.00 | 0.00 | 0.00 | 39 | 1012.6 |
| 20260503224404 | 79 | 319 | 1.7 | 2.6 | 0.00 | 0.00 | 0.00 | 42 | 1012.6 |
| 20260503223904 | 79 | 320 | 1.7 | 2.6 | 0.00 | 0.00 | 0.00 | 39 | 1013.4 |
| 20260503222405 | 78 | 320 | 1.7 | 4.3 | 0.00 | 0.00 | 0.00 | 39 | 1013.4 |
| 20260503221904 | 78 | 320 | 1.7 | 4.3 | 0.00 | 0.00 | 0.00 | 40 | 1013.4 |
| 20260503221404 | 77 | 320 | 2.6 | 4.3 | 0.00 | 0.00 | 0.00 | 42 | 1013.4 |
| 20260503220904 | 77 | 321 | 1.7 | 2.6 | 0.00 | 0.00 | 0.00 | 40 | 1013.4 |
| 20260503220405 | 77 | 321 | 1.7 | 2.6 | 0.00 | 0.00 | 0.00 | 38 | 1013.4 |
| 20260503215404 | 76 | 317 | 1.7 | 4.3 | 0.00 | 0.00 | 0.00 | 39 | 1013.4 |